| Date | Time | Temp. (oF) | Dew Point (oF) | Rel. Hum. (%) | Press. (in.) | Wind Dir. | Wind Speed (mph) | Hourly Rainfall (in.) |
|
|---|---|---|---|---|---|---|---|---|---|
| 1 | 01/25 | 00:00 | 33 | 27 | 80 | 29.59 | WSW | 7 | 0.00 |
| 2 | 01/24 | 23:00 | 33 | 27 | 79 | 29.57 | WSW | 5 | 0.00 |
| 3 | 01/24 | 22:00 | 33 | 26 | 77 | 29.57 | WSW | 9 | 0.00 |
| 4 | 01/24 | 21:00 | 33 | 26 | 78 | 29.54 | WNW | 7 | 0.00 |
| 5 | 01/24 | 20:00 | 34 | 26 | 73 | 29.51 | W | 10 | 0.00 |
| 6 | 01/24 | 19:00 | 35 | 26 | 70 | 29.48 | WSW | 10 | 0.00 |
| 7 | 01/24 | 18:00 | 36 | 25 | 66 | 29.44 | W | 8 | 0.00 |
| 8 | 01/24 | 17:00 | 36 | 31 | 85 | 29.41 | WSW | 5 | 0.00 |
| 9 | 01/24 | 16:00 | 36 | 34 | 93 | 29.40 | WSW | 6 | 0.00 |
| 10 | 01/24 | 15:00 | 34 | 32 | 95 | 29.38 | W | 6 | 0.00 |
| 11 | 01/24 | 14:00 | 34 | 32 | 95 | 29.39 | NNE | 4 | 0.00 |
| 12 | 01/24 | 13:00 | 33 | 32 | 97 | 29.42 | W | 7 | 0.00 |
| 13 | 01/24 | 12:00 | 33 | 32 | 97 | 29.46 | W | 7 | 0.00 |
| 14 | 01/24 | 11:00 | 33 | 31 | 95 | 29.50 | N | 4 | 0.00 |
| 15 | 01/24 | 10:00 | 32 | 30 | 93 | 29.51 | N | 4 | 0.00 |
| 16 | 01/24 | 09:00 | 31 | 29 | 93 | 29.54 | N | 4 | 0.00 |
| 17 | 01/24 | 08:00 | 31 | 29 | 93 | 29.57 | NW | 2 | 0.00 |
| 18 | 01/24 | 07:00 | 31 | 29 | 93 | 29.59 | N | 6 | 0.01 |
| 19 | 01/24 | 06:00 | 31 | 29 | 93 | 29.62 | NNE | 3 | 0.00 |
| 20 | 01/24 | 05:00 | 31 | 29 | 93 | 29.63 | NE | 2 | 0.03 |
| 21 | 01/24 | 04:00 | 31 | 29 | 94 | 29.68 | ENE | 3 | 0.05 |
| 22 | 01/24 | 03:00 | 31 | 29 | 94 | 29.74 | ENE | 3 | 0.12 |
| 23 | 01/24 | 02:00 | 31 | 29 | 94 | 29.77 | ENE | 4 | 0.18 |
| 24 | 01/24 | 01:00 | 31 | 29 | 95 | 29.84 | NE | 3 | 0.11 |